CZ-6A DEB, 60900

Orbit data source: Space-Track

CZ-6A DEB, 60900 is space debris in LEO originally from a launch on Tue, 06 Aug 2024 UTC launched from the Taiyaun Space Center, China (TSC). Debris objects in space refer to the collection of defunct objects orbiting the Earth. Examples of debris include non-operational satellites, rocket bodies, and fragments generated from explosions, collisions, or faulty payload assembly.

Loading next visibility...
Identifier
60900, 2024-140LF
Orbit
LEO
Country
Flag of CNCN / PRC
Related business
Manufacturer
SAST
Mission
Spacecraft
Bus & Motor
Unknown
Mass
Unknown
Launch date (UTC)
2024-08-06 (2 years ago)
Launch vehicle
Unknown
Launch site
Taiyaun Space Center, China (TSC)
Object type
Payload
Rocket body
Debris
Shape & HBR
Unknown shape, 0.1 m
Radar Cross Section
Medium (>0.1 m² and <1 m²)

Expand to show TLE details & history
Last TLE update: 15 hours ago

TLE from 15 hours ago
0 CZ-6A DEB
1 60900U 24140LF  26171.21076813  .00000215  00000-0  83584-4 0  9991
2 60900  88.9169 266.7002 0019097 113.3768 246.9436 14.26163465 95585
Epoch: 2026-06-20T05:03Z
TLE epoch observation values (Epoch: 2026-06-20T05:03:30.366Z)
Latitude
-0.00009°
Longitude
-77.60498°
Altitude
813.041 km
Speed
7.444 km/s
True Right ascension
17h 46m 48s
True Declination
0° 00' 00"
Sunlit
Object was in full shadow at epoch
Visualization orbit readout
Latitude
Unknown
Longitude
Unknown
Altitude
Unknown
Speed
Unknown
Apparent Right ascension
Unknown
Apparent Declination
Unknown
Sunlit
N/A
Visualization observer readout
Local Sidereal Time
07:23:52
Azimuth
Unknown
Elevation
Unknown
Doppler factor
Unknown
Orbital elements
Apogee altitude
815.237 km
Perigee altitude
787.815 km
Semi-major axis
7,179.663 km
Eccentricity
0.00191
Inclination
88.9169°
RAAN
266.7002°
Arg. of periapsis
113.3768°
True anomaly
246.74243°
Mean anomaly
246.9436°
Eccentric anomaly
246.843°
Mean motion
3.56769 °/min
Orbital period
100.91 mins
BSTAR
0.000083584
Loading maneuver chart data...
Computing Atmospheric mass density...
Loading historical data...
Loading historical data...
Loading historical data...
Loading historical data...
Loading historical data...
Loading historical data...
Loading historical data...

Documentation

Showing up to 5 results
|